This is the latest recevied weather packets stored in our database for station/object OM8AKX-4. If no packets are shown the sender has not sent any weather packets the latest 10 day(s).
| Time | Temp. | Humidity | Pressure | Rain* | Wind** | Luminosity | Snow |
|---|---|---|---|---|---|---|---|
| 1777838222 | 8.89° C | 38% | 879.7 hPa | - | - | - | - |
| 1777835524 | 8.89° C | 42% | 879.8 hPa | - | - | - | - |
| 1777831923 | 8.89° C | 47% | 879.8 hPa | - | - | - | - |
| 1777827423 | 10° C | 47% | 879.7 hPa | - | - | - | - |
| 1777825623 | 10.56° C | 46% | 879.7 hPa | - | - | - | - |
| 1777824723 | 11.11° C | 45% | 879.8 hPa | - | - | - | - |
| 1777823823 | 11.11° C | 45% | 879.9 hPa | - | - | - | - |
| 1777822923 | 11.67° C | 45% | 879.9 hPa | - | - | - | - |
| 1777816622 | 12.22° C | 42% | 880.7 hPa | - | - | - | - |
| 1777811223 | 11.67° C | 43% | 881.3 hPa | - | - | - | - |
| 1777810323 | 12.22° C | 43% | 881.2 hPa | - | - | - | - |
| 1777809423 | 12.22° C | 44% | 881.3 hPa | - | - | - | - |
| 1777807623 | 11.67° C | 43% | 881.6 hPa | - | - | - | - |
| 1777806723 | 11.67° C | 44% | 881.6 hPa | - | - | - | - |
| 1777805823 | 11.11° C | 45% | 881.7 hPa | - | - | - | - |
| 1777804022 | 11.67° C | 45% | 881.9 hPa | - | - | - | - |
| 1777803122 | 11.11° C | 45% | 881.9 hPa | - | - | - | - |
| 1777802222 | 11.11° C | 46% | 882.1 hPa | - | - | - | - |
| 1777800422 | 11.11° C | 46% | 882.1 hPa | - | - | - | - |
| 1777799522 | 11.11° C | 48% | 882.1 hPa | - | - | - | - |
| 1777798622 | 10.56° C | 48% | 882.2 hPa | - | - | - | - |
| 1777796822 | 11.11° C | 45% | 882.2 hPa | - | - | - | - |
| 1777795921 | 11.11° C | 45% | 882.1 hPa | - | - | - | - |
| 1777795021 | 11.11° C | 44% | 882.1 hPa | - | - | - | - |
| 1777794121 | 11.11° C | 44% | 882 hPa | - | - | - | - |
* Rain since midnight (hover to see other rain measurements)
** Current wind speed in m/s (hover to see current wind gust speed)